小惑星2013 NF15

2013 NF15

English version
Home page
Updated on August 10, 2013

---------------------------------------------------------------------

・ プロフィール

発見日 2013年7月14日
発見光度 22.2等
発見者 Pan-STARRS 1 telescope (Haleakala)

・ 軌道要素

Epoch 2013 Apr. 18.0 TT = JDT 2456400.5                 MPC
M 354.39204              (2000.0)            P               Q
n   0.09446106     Peri.  246.53165     +0.15184408     +0.98824392
a   4.7749354      Node    32.21799     -0.89421573     +0.14503039
e   0.7074627      Incl.    1.91479     -0.42109571     +0.04837507
P  10.43           H   21.9           G   0.15           U   7

・ 光度変化

        H = 21.9  G = 0.15

---------------------------------------------------------------------

軌道要素はM.P.E.C. 2013-O06に掲載されたものです。
光度グラフはComet for Windowsで作成したものです。

---------------------------------------------------------------------

Copyright(C) Seiichi Yoshida (comet@aerith.net). All rights reserved.